logo dgac
Domingo 21 de Abril del 2019
Buscar por aerodromo o helipuerto
Ingrese nombre de aeródromo, localidad o designador OACI:

Aeródromo: Alto Palena (PUB) (SCAP)

Ubicación: Palena, X Región, Chile (43º 36' 42'' S, 71º 48' 19'' W) Ver ubicación en el mapa

Pistas

Orientación Dimensión Pendiente Superficie Resistencia APCH THR RWY PAPI
07/25 876 x 18 0,50 ASPH PCN 27 F/A/Y/T No No No No
Horas de operación HJ
Elevación 273 m / 897 ft
Otra Información Adm : DGAC
Uso : PUB
TEL 652486286
Ubicado a 1 km N de Palena


Cámaras de Aeródromos. www.dgac.gob.cl.

Otra información ver AIP-Chile Volumen I AD 3.9-15.2-P
CCCM/FCCV Descargar
andera de Chile
Mapa de Alto Palena (PUB) (SCAP)

Último METAR

METAR SCAP 210900Z AUTO VRB01KT 9000 ////// 06/05 Q1024

Último TAF

No hay tafs registrados para este aeródromo

Últimas fotos cámaras

Imagen aerodromo Alto Palena (PUB) (SCAP) Oeste tomada el 11-04-2019 06:36:55 Imagen aerodromo Alto Palena (PUB) (SCAP) Este tomada el 21-04-2019 05:06:58

Último NOTAM

C1285/19 NOTAMN Q)SCTZ/QMRLX/IV/BO/A/000/999/4337S07148W005 A)SCAP B)1904162031 C)1907162030 E)RWY 07/25 CTN ZANJA DE DRENAJE AGUAS LLUVIAS WID 1 M Y DPT 0,7 M. LOC A 16 M DEL COSTADO N DE BORDE DE RWY INSTRUCCIONES: ALTO PALENA INFO 126.7 MHZ.

LLegadas a Alto Palena (PUB) (SCAP)

En vuelo

Vuelo Procedencia Hora Despegue Local Hora Arribo Local

Salidas de Alto Palena (PUB) (SCAP)

En vuelo

Vuelo Hacia Hora Despegue Local Hora Arribo Local